Home > Weather > Rathenow > Past weeks

Flag for Germany Past Weather in Rathenow, Brandenburg, Germany — Yesterday and Last 2 Weeks

Now
84 °F

Passing clouds.


Feels Like: 83 °F
Forecast: 58 / 72 °F
Wind: 8 mph from Southeast

Location: Berlin-Tegel

Current Time: Aug 28, 2016 at 12:37:02 PM

Latest Report: Aug 28, 2016 at 11:50 AM


Visibility: N/A

Pressure: 29.92 "Hg

Humidity: 37%

Dew Point: 55 °F

Location of RathenowLocation

Past Weather in Rathenow — Graph

°F

Rathenow Temperature Yesterday

Maximum temperature yesterday: 90 °F (at 3:50 PM)
Minimum temperature yesterday: 63 °F (at 5:20 AM)
Average temperature yesterday: 76 °F

High & Low Weather Summary for the Past Weeks

 TemperatureHumidityPressure
High93 °F (Aug 26, 3:20 PM)100% (Aug 17, 3:50 AM)30.33 "Hg (Aug 17, 3:50 AM)
Low46 °F (Aug 17, 5:50 AM)12% (Aug 26, 4:20 PM)29.80 "Hg (Aug 18, 4:20 PM)
Average67 °F64%30.08 "Hg
* Reported Aug 13 10:20 AM — Aug 28 10:50 AM, Rathenow, Weather by CustomWeather, © 2016

Note: Actual official high and low records may vary slightly from our data, if they occured in-between our weather recording intervals... More about our weather records

Advertising

Rathenow Weather History for the Previous 24 Hours

Scroll right to see more
 ConditionsComfort  
Time TempWeatherWind HumidityBarometerVisibility
10:50 AM
Sun, Aug 28
81 °FSunny.5 mph42%29.95 "Hg10 mi
10:20 AM79 °FSunny.3 mph45%29.95 "Hg10 mi
9:50 AM77 °FPassing clouds.7 mph54%29.95 "HgN/A
9:20 AM75 °FPassing clouds.7 mph57%29.95 "HgN/A
8:50 AM73 °FSunny.7 mph61%29.95 "Hg10 mi
8:20 AM72 °FSunny.7 mph65%29.95 "Hg10 mi
7:50 AM70 °FSunny.5 mph73%29.95 "Hg10 mi
7:20 AM68 °FPassing clouds.5 mph78%29.95 "HgN/A
6:50 AM66 °FClear.2 mph83%29.98 "Hg10 mi
6:20 AM66 °FClear.2 mph83%29.98 "Hg10 mi
5:50 AM66 °FClear.2 mph83%29.98 "Hg10 mi
5:20 AM64 °FFog.1 mph88%29.98 "HgN/A
4:50 AM66 °FClear.2 mph83%29.98 "Hg10 mi
4:20 AM66 °FPassing clouds.3 mph83%29.98 "HgN/A
3:50 AM66 °FClear.3 mph83%29.98 "Hg10 mi
3:20 AM68 °FPassing clouds.5 mph78%30.01 "HgN/A
2:50 AM68 °FClear.3 mph78%30.01 "Hg10 mi
2:20 AM68 °FPassing clouds.3 mph78%30.01 "HgN/A
1:50 AM70 °FPassing clouds.5 mph73%30.01 "HgN/A
1:20 AM70 °FPassing clouds.5 mph73%30.04 "HgN/A
12:50 AM70 °FPassing clouds.5 mph73%30.04 "HgN/A
12:20 AM70 °FPassing clouds.6 mph73%30.04 "HgN/A
11:50 PM
Sat, Aug 27
72 °FPassing clouds.5 mph69%30.07 "HgN/A
11:20 PM73 °FPassing clouds.6 mph69%30.07 "HgN/A
10:50 PM73 °FPassing clouds.7 mph69%30.07 "HgN/A
10:20 PM75 °FPassing clouds.7 mph65%30.07 "HgN/A
9:50 PM75 °FPassing clouds.6 mph65%30.07 "HgN/A
9:20 PM77 °FPassing clouds.7 mph61%30.07 "HgN/A
8:50 PM79 °FPassing clouds.7 mph58%30.07 "HgN/A
8:20 PM81 °FPassing clouds.8 mph54%30.07 "HgN/A
7:50 PM82 °FPassing clouds.7 mph48%30.07 "HgN/A
7:20 PM84 °FPassing clouds.6 mph43%30.04 "HgN/A
6:50 PM86 °FPassing clouds.6 mph40%30.04 "HgN/A
6:20 PM88 °FPassing clouds.6 mph38%30.04 "HgN/A
5:50 PM88 °FPassing clouds.6 mph38%30.07 "HgN/A
5:20 PM88 °FPassing clouds.7 mph35%30.07 "HgN/A
4:50 PM90 °FPassing clouds.6 mph33%30.07 "HgN/A
4:20 PM88 °FPassing clouds.7 mph35%30.07 "HgN/A
3:50 PM90 °FSunny.6 mph31%30.07 "Hg10 mi
3:20 PM88 °FPassing clouds.5 mph33%30.09 "HgN/A
2:50 PM86 °FPassing clouds.6 mph35%30.09 "HgN/A
2:20 PM86 °FPassing clouds.5 mph38%30.09 "HgN/A
1:50 PM86 °FSunny.6 mph40%30.09 "Hg10 mi
1:20 PM84 °FSunny.5 mph40%30.09 "Hg10 mi
12:50 PM82 °FPassing clouds.7 mph42%30.09 "HgN/A
12:20 PM82 °FSunny.5 mph45%30.12 "Hg10 mi
Weather by CustomWeather, © 2016

See weather overviewHow to use our weather pages